SCP
0 0 0 0 0 0 0 0 0 0 0 0 0 0 0 0 0 0 0 0 0 0 0 0 0 0 0 0 0 0 0 0 0 0 0 0 0 0 0 0 0 0 0
0 0 0 0 0 0 0 0 0 0 0 0 0 0 0 0 0 0 0 0 0 0 0 0 0 0 0 0 0 0 0 0 0 0 0 0 0 0 0 0 0 0 0
0 0 0 0 0 0 0 0 0 0 0 0 0 0 0 0 0 0 0 0 0 0 0 0 0 0 0 0 0 0 0 0 0 0 0 0 0 0 0 0 0 0 0
0 0 0 0 0 0 0 0 0 0 0 0 0 0 0 0 0 0 0 0 0 0 0 0 0 0 0 0 0 0 0 0 0 0 0 0 0 0 0 0 0 0 0
0 0 0 0 0 0 0 0 0 0 0 0 0 0 0 0 0 0 0 0 0 0 0 0 0 0 0 0 0 0 0 0 0 0 0 0 0 0 0 0 0 0 0
0 0 0 0 0 0 0 0 0 0 0 0 0 0 0 0 0 0 0 0 0 0 0 0 0 0 0 0 0 0 0 0 0 0 0 0 0 0 0 0 0 0 0
0 0 0 0 0 0 0 0 0 0 0 0 0 0 0 0 0 0 0 0 0 0 0 0 0 0 0 0 0 0 0 0 0 0 0 0 0 0 0 0 0 0 0
0 0 0 0 0 0 0 0 0 0 0 0 0 0 0 0 0 0 0 0 0 0 0 0 0 0 0 0 0 0 0 0 0 0 0 0 0 0 0 0 0 0 0
0 0 0 0 0 0 0 0 0 0 0 0 0 0 0 0 0 0 0 0 0 0 0 0 0 0 0 0 0 0 0 0 0 0 0 0 0 0 0 0 0 0 0
0 0 0 0 0 0 0 0 0 0 0 0 0 0 0 0 0 0 0 0 0 0 0 0 0 0 0 0 0 0 0 0 0 0 0 0 0 0 0 0 0 0 0
0 0 0 0 0 0 0 0 0 0 0 0 0 0 0 0 0 0 0 0 0 0 0 0 0 0 0 0 0 0 0 0 0 0 0 0 0 0 0 0 0 0 0
0 0 0 0 0 0 0 0 0 0 0 0 0 0 0 0 0 0 0 0 0 0 0 0 0 0 0 0 0 0 0 0 0 0 0 0 0 0 0 0 0 0 0
0 0 0 0 0 0 0 0 0 0 0 0 0 0 0 0 0 0 0 0 0 0 0 0 0 0 0 0 0 0 0 0 0 0 0 0 0 0 0 0 0 0 0
0 0 0 0 0 0 0 0 0 0 0 0 0 0 0 0 0 0 0 0 0 0 0 0 0 0 0 0 0 0 0 0 0 0 0 0 0 0 0 0 0 0 0
0 0 0 0 0 0 0 0 0 0 0 0 0 0 0 0 0 0 0 0 0 0 0 0 0 0 0 0 0 0 0 0 0 0 0 0 0 0 0 0 0 0 0
0 0 0 0 0 0 0 0 0 0 0 0 0 0 0 0 0 0 0 0 0 0 0 0 0 0 0 0 0 0 0 0 0 0 0 0 0 0 0 0 0 0 0
0 0 0 0 0 -0 0 0 0 0 0 0 0 0 0 0 0 0 0 0 0 0 0 0 0 0 0 0 0 0 0 0 0 0 0 0 0 0 0 0 0 0 0
0 0 0 -0 -0 0 0 0 0 0 0 0 0 0 0 0 0 0 0 0 0 0 0 0 0 0 0 0 0 0 0 0 0 0 0 0 0 0 0 0 0 0 0
0 0 0 0 0 0 0 0 0 0 0 0 0 0 0 0 0 0 0 0 0 0 0 0 0 0 0 0 0 0 0 0 0 0 0 0 0 0 0 0 0 0 0
0 0 0 0 0 0 0 0 0 0 0 0 0 0 0 0 0 0 0 0 0 0 0 0 0 0 0 0 0 0 0 0 0 0 0 0 0 0 0 0 0 0 0
0 0 0 0 0 0 0 0 0 0 0 0 0 0 0 0 0 0 0 0 0 0 0 0 0 0 0 0 0 0 0 0 0 0 0 0 0 0 0 0 0 0 0
0 0 0 0 0 0 0 0 0 0 0 0 0 0 0 0 0 0 0 0 0 0 0 0 0 0 0 0 0 0 0 0 0 0 0 0 0 0 0 0 0 0 0
0 0 0 0 0 0 0 0 0 0 0 0 0 0 0 0 0 0 0 0 0 0 0 0 0 0 0 0 0 0 0 0 0 0 0 0 0 0 0 0 0 0 0
0 0 0 0 0 0 0 0 0 0 0 0 0 0 0 0 0 0 0 0 0 0 0 0 0 0 0 0 0 0 0 0 0 0 0 0 0 0 0 0 0 0 0
0 0 0 0 0 0 0 0 0 0 0 0 0 0 0 0 0 0 0 0 0 0 0 0 0 0 0 0 0 0 0 0 0 0 0 0 0 0 0 0 0 0 0
0 0 0 0 0 0 0 0 0 0 0 0 0 0 0 0 0 0 0 0 0 0 0 0 0 0 0 0 0 0 0 0 0 0 0 0 0 0 0 0 0 0 0
Wind_Speed
17 14 16 18 18 19 20 21 21 21 18 15 14 14 14 12 12 12 15 16 15 16 14 10 11 11 10 10 10 8 9 7 6 7 8 9 10 9 8 8 8 10 11
14 13 14 16 19 21 21 21 22 21 21 16 14 12 12 12 13 12 14 17 17 17 14 15 12 12 10 12 11 10 8 7 6 6 6 6 6 7 7 8 9 10 10
12 12 14 16 18 20 22 19 22 22 22 19 13 11 10 9 11 14 14 17 18 18 17 17 15 13 13 11 13 12 12 9 8 8 6 6 5 4 6 9 9 10 9
7 8 10 14 17 18 17 19 20 21 20 20 18 20 16 17 17 14 13 16 19 19 19 18 18 15 13 13 13 13 11 11 9 8 9 9 7 6 6 6 8 10 12
4 5 8 11 13 14 15 16 18 19 20 21 21 21 20 17 13 14 16 17 17 20 20 19 18 17 14 15 14 13 14 11 11 9 8 9 9 10 9 10 9 9 10
7 5 5 7 10 11 13 15 17 19 20 21 22 24 24 21 19 18 16 15 13 15 21 20 18 17 15 16 15 14 15 13 13 10 9 9 8 8 9 11 12 12 11
10 9 7 5 7 10 13 15 17 19 20 22 23 24 24 23 23 20 18 16 14 14 19 19 19 17 17 16 15 15 15 15 15 13 10 10 10 9 10 11 12 14 12
12 12 10 7 6 8 11 14 17 18 19 20 21 21 22 17 16 20 17 17 14 15 17 20 19 19 18 17 16 14 15 13 14 14 14 10 10 10 10 11 11 13 13
14 13 12 9 7 6 8 11 14 15 16 18 19 19 20 20 19 17 18 16 15 13 17 19 19 19 19 18 17 13 15 14 14 14 14 12 11 10 10 10 10 11 13
15 14 12 10 8 7 6 7 10 12 13 15 16 14 17 19 18 17 19 18 18 17 17 18 19 19 19 19 18 15 15 15 14 12 13 13 11 10 10 11 11 11 13
14 12 11 10 9 8 6 5 7 9 10 12 14 15 16 16 17 18 19 18 17 18 18 18 19 19 19 19 18 17 16 16 15 14 14 15 14 11 11 11 11 12 12
11 10 11 11 10 9 8 6 6 7 8 9 11 14 14 15 17 18 18 17 18 18 18 18 19 19 19 19 19 18 17 17 17 16 15 16 12 15 13 11 13 13 13
10 11 12 12 12 11 10 8 7 7 7 8 10 12 13 15 16 17 16 17 17 17 18 18 19 19 18 18 19 18 17 17 17 16 16 16 15 15 13 14 13 12 12
10 12 13 13 13 12 11 10 9 8 7 8 10 12 13 14 15 15 15 16 16 17 18 18 18 18 17 17 17 17 16 16 16 16 16 16 15 16 15 13 14 14 14
12 14 14 15 15 14 13 12 11 10 8 9 10 12 12 12 12 13 14 14 16 17 17 17 18 18 16 15 17 16 16 16 16 15 16 16 19 20 17 13 13 14 13
15 16 16 16 16 15 14 13 13 11 10 10 11 11 11 11 12 13 13 14 15 16 17 18 18 19 15 22 28 20 16 16 16 15 15 16 19 21 25 26 24 21 16
16 17 16 15 15 14 13 13 13 12 11 10 11 11 11 11 12 12 13 14 15 16 17 17 18 19 20 27 29 29 18 17 16 15 14 12 13 18 14 18 23 22 25
17 16 15 15 14 14 12 12 12 12 11 11 11 10 10 12 12 12 14 14 13 14 15 16 18 19 20 27 29 29 22 17 16 15 15 14 14 13 14 13 14 15 16
15 14 14 14 14 13 12 11 12 11 9 10 11 11 10 12 12 13 14 13 13 14 14 15 17 19 19 26 28 27 15 15 16 15 15 15 15 18 20 15 15 16 14
13 13 13 14 14 13 12 12 13 13 12 12 13 13 12 12 13 13 13 12 12 13 13 14 16 18 18 23 27 28 13 14 13 12 13 19 19 19 19 14 14 15 13
14 13 13 13 13 14 13 13 14 14 14 14 14 14 13 13 13 12 11 11 11 12 13 14 14 16 18 20 26 28 14 13 12 10 10 11 18 20 20 18 13 15 14
13 13 13 14 14 13 13 15 16 15 15 15 15 15 14 11 10 11 11 10 11 12 12 13 13 12 14 18 21 27 25 19 13 11 9 10 16 17 19 15 15 18 16
13 13 14 15 15 14 14 16 16 15 15 15 15 15 14 12 10 10 10 9 9 9 10 10 11 10 10 13 23 25 26 26 15 10 14 14 16 15 13 14 16 14 9
14 13 15 16 16 16 15 16 16 15 15 16 15 14 13 12 10 8 8 8 9 9 10 10 10 10 10 10 11 12 15 20 17 12 13 16 16 12 12 11 10 7 7
13 13 14 16 18 17 17 16 15 15 15 15 14 13 11 11 10 9 8 10 10 11 11 10 10 10 10 13 17 13 11 11 10 9 7 7 7 8 7 7 7 7 7
14 14 15 17 18 18 18 16 15 14 15 14 13 11 10 9 9 9 9 13 15 18 20 20 16 12 15 15 19 22 20 19 17 12 8 8 8 8 7 7 7 7 7
Wind_Direction
238 221 210 207 205 205 205 204 203 204 201 200 204 207 211 212 213 214 212 208 206 204 207 209 208 207 211 213 215 220 228 230 235 257 265 260 254 255 255 256 259 261 263
242 221 209 205 205 205 205 205 205 203 203 204 204 210 214 217 216 214 216 213 209 207 206 210 208 207 212 214 214 215 223 227 220 238 269 276 251 224 241 254 259 264 267
251 229 214 211 208 209 208 206 206 205 205 203 203 205 212 220 215 215 215 214 212 209 208 210 211 209 210 212 211 210 216 224 218 220 238 260 277 295 252 254 258 263 266
262 246 224 216 214 215 211 211 210 208 206 202 206 205 207 215 217 215 215 213 212 212 210 210 211 210 210 213 211 210 213 221 226 218 224 236 255 269 285 257 254 260 265
327 271 240 229 223 217 213 213 213 212 209 207 210 213 221 226 225 219 219 216 212 212 211 211 209 211 211 212 211 208 211 214 223 224 222 230 240 237 247 273 278 272 267
357 328 275 242 230 218 213 212 214 216 212 211 213 217 223 225 225 222 218 216 214 212 212 210 210 210 210 210 210 211 213 215 220 225 228 230 234 238 244 261 274 281 281
358 346 326 276 241 222 215 213 215 218 214 214 216 220 224 226 228 226 222 217 215 213 211 207 209 209 209 209 208 210 213 216 219 223 226 231 237 245 253 263 274 280 283
357 345 333 310 274 241 223 217 218 221 216 216 220 223 225 227 231 229 225 222 221 218 212 208 209 208 207 206 206 209 212 215 219 224 227 233 238 240 245 254 269 279 281
347 341 335 327 307 276 241 228 226 226 222 221 223 225 225 226 230 232 230 229 226 221 216 210 210 209 207 205 204 209 211 212 218 222 225 230 237 240 243 248 253 264 279
343 341 340 337 328 312 287 251 239 237 232 227 225 228 228 229 231 232 231 229 227 222 218 213 211 209 207 205 205 208 211 212 216 220 227 230 234 240 242 245 248 249 259
340 341 341 341 337 332 317 287 260 250 242 234 231 231 232 231 231 232 233 231 229 223 220 216 213 210 207 204 205 208 208 212 217 219 226 232 235 240 242 244 246 249 252
344 344 344 345 347 344 335 315 287 266 255 246 240 238 238 235 233 234 234 231 229 225 222 218 216 213 208 205 205 208 209 211 217 220 224 232 234 237 242 245 247 250 254
349 351 351 348 347 342 336 326 309 289 275 260 250 247 242 239 238 238 236 232 230 227 222 219 217 214 209 206 206 207 210 212 217 219 224 230 233 238 241 243 248 252 256
350 349 345 342 340 335 332 327 320 307 289 271 260 256 253 248 245 243 238 233 229 227 223 221 220 215 211 207 205 206 210 213 218 221 225 229 231 236 241 245 250 254 258
346 342 338 334 331 330 329 328 321 314 300 281 269 266 265 260 253 248 242 236 232 229 226 223 221 216 211 206 202 204 208 213 219 222 226 230 232 236 239 241 247 251 257
336 333 329 327 326 326 325 323 319 317 305 289 281 279 274 266 257 250 243 237 233 229 225 223 221 218 213 211 208 203 209 214 219 223 227 232 238 242 247 251 254 256 262
328 325 322 321 319 319 320 317 314 313 304 292 286 284 278 270 263 255 246 240 235 230 226 224 222 221 217 214 213 210 208 214 218 221 226 231 234 239 243 255 262 267 269
322 319 318 316 314 313 315 311 310 306 300 294 288 283 278 274 270 260 251 245 238 233 229 226 225 225 222 218 216 215 214 219 222 223 226 232 237 237 240 247 255 259 263
315 313 313 311 309 309 311 309 303 302 294 291 293 292 283 278 274 264 256 249 241 237 231 228 226 225 224 220 218 216 216 220 225 226 227 233 239 242 246 250 257 263 265
312 313 312 309 307 313 319 309 306 306 305 306 304 301 293 282 276 270 264 254 244 240 235 232 228 227 226 221 218 216 215 219 222 224 227 232 238 243 247 249 257 266 271
310 313 312 309 310 318 317 306 306 307 310 309 305 300 294 287 280 276 266 256 246 241 236 236 231 228 227 224 219 216 211 215 218 222 224 227 235 243 250 253 257 266 276
309 315 314 311 313 313 309 306 307 311 311 307 303 299 296 291 282 274 268 256 246 242 238 236 234 229 226 225 222 219 217 213 216 221 225 229 234 243 252 258 263 272 279
311 314 312 308 308 310 311 306 307 311 309 304 301 301 299 293 284 275 268 258 244 240 238 234 233 229 221 221 221 220 221 220 216 221 227 232 238 246 254 259 267 274 273
312 313 311 309 309 311 308 304 306 308 305 302 302 302 300 296 288 274 263 254 245 239 236 234 233 229 222 215 212 214 220 223 223 226 230 234 242 245 253 260 264 262 263
308 310 307 304 305 308 307 307 308 309 305 303 302 301 296 293 289 276 262 255 246 240 236 236 234 231 226 218 208 202 206 205 209 206 213 220 228 235 240 246 253 257 261
306 305 303 304 307 309 307 308 309 309 306 303 302 301 299 295 288 284 276 255 250 252 246 242 240 239 239 234 219 213 211 207 204 203 213 220 226 235 243 250 255 257 261